| time (UTC) | temp C | wind direction | speed KPH | gust KPH | rain 1hr cm | rain 24hr cm | rain mn cm | humidity % | barometer mb |
| 20260505070027 | 6 | 218 | 4.8 | 11.3 | 0.00 | 0.23 | 0.00 | 88 | 1008.2 |
| 20260505064532 | 6 | 210 | 6.4 | 16.1 | 0.00 | 0.28 | 0.00 | 87 | 1007.8 |
| 20260505063019 | 6 | 208 | 6.4 | 14.5 | 0.00 | 0.28 | 0.00 | 87 | 1007.5 |
| 20260505061515 | 7 | 208 | 8.0 | 17.7 | 0.00 | 0.28 | 0.00 | 86 | 1007.2 |
| 20260505060016 | 7 | 196 | 4.8 | 12.9 | 0.00 | 0.28 | 0.00 | 86 | 1007.0 |
| 20260505054518 | 7 | 193 | 6.4 | 14.5 | 0.00 | 0.33 | 0.00 | 86 | 1006.7 |
| 20260505053007 | 7 | 196 | 3.2 | 12.9 | 0.00 | 0.33 | 0.00 | 85 | 1006.4 |
| 20260505051503 | 7 | 241 | 4.8 | 14.5 | 0.00 | 0.33 | 0.00 | 85 | 1006.1 |
| 20260505050109 | 7 | 241 | 4.8 | 12.9 | 0.00 | 0.33 | 0.00 | 84 | 1005.9 |
| 20260505041559 | 8 | 233 | 8.0 | 17.7 | 0.00 | 0.43 | 0.00 | 82 | 1005.2 |
| 20260505040056 | 8 | 229 | 3.2 | 25.7 | 0.00 | 0.43 | 0.00 | 81 | 1004.9 |
| 20260505034604 | 8 | 249 | 11.3 | 29.0 | 0.00 | 0.43 | 0.00 | 80 | 1004.7 |
| 20260505033043 | 8 | 247 | 12.9 | 33.8 | 0.00 | 0.43 | 0.00 | 80 | 1004.6 |
| 20260505031538 | 8 | 245 | 6.4 | 30.6 | 0.00 | 0.43 | 0.00 | 80 | 1004.3 |
| 20260505030045 | 8 | 235 | 11.3 | 30.6 | 0.00 | 0.43 | 0.00 | 80 | 1004.0 |
| 20260505024534 | 8 | 276 | 9.7 | 30.6 | 0.00 | 0.43 | 0.43 | 80 | 1004.0 |
| 20260505023041 | 8 | 262 | 12.9 | 32.2 | 0.00 | 0.43 | 0.43 | 79 | 1003.8 |
| 20260505021532 | 8 | 219 | 11.3 | 22.5 | 0.00 | 0.43 | 0.43 | 78 | 1003.7 |
| 20260505020030 | 8 | 197 | 8.0 | 17.7 | 0.00 | 0.43 | 0.43 | 77 | 1003.5 |
| 20260505014536 | 9 | 232 | 11.3 | 30.6 | 0.00 | 0.51 | 0.43 | 76 | 1003.4 |
| 20260505013031 | 9 | 220 | 12.9 | 25.7 | 0.00 | 0.51 | 0.43 | 75 | 1003.4 |
| 20260505011526 | 9 | 248 | 12.9 | 27.4 | 0.00 | 0.51 | 0.43 | 73 | 1003.3 |
| 20260505010026 | 9 | 254 | 12.9 | 38.6 | 0.00 | 0.51 | 0.43 | 71 | 1003.2 |
| 20260505004550 | 9 | 203 | 12.9 | 45.1 | 0.00 | 0.76 | 0.43 | 69 | 1002.9 |
| 20260505003023 | 9 | 270 | 8.0 | 30.6 | 0.00 | 0.76 | 0.43 | 68 | 1002.8 |
| 20260505001521 | 10 | 210 | 8.0 | 33.8 | 0.00 | 0.76 | 0.43 | 66 | 1002.6 |
| 20260505000020 | 9 | 227 | 9.7 | 30.6 | 0.00 | 0.76 | 0.43 | 66 | 1002.6 |
| 20260504234519 | 8 | 221 | 8.0 | 20.9 | 0.00 | 1.24 | 0.43 | 67 | 1002.2 |
| 20260504233020 | 9 | 252 | 4.8 | 19.3 | 0.00 | 1.24 | 0.43 | 65 | 1001.9 |
| 20260504231512 | 9 | 221 | 12.9 | 38.6 | 0.00 | 1.24 | 0.43 | 63 | 1001.8 |
| 20260504230011 | 10 | 239 | 16.1 | 30.6 | 0.00 | 1.24 | 0.43 | 60 | 1001.4 |
| 20260504224509 | 10 | 240 | 12.9 | 37.0 | 0.00 | 1.42 | 0.43 | 61 | 1001.4 |
| 20260504223108 | 10 | 240 | 19.3 | 38.6 | 0.00 | 1.42 | 0.43 | 58 | 1001.2 |
| 20260504221538 | 10 | 252 | 17.7 | 41.8 | 0.00 | 1.42 | 0.43 | 60 | 1001.1 |
| 20260504220005 | 10 | 258 | 24.1 | 43.5 | 0.00 | 1.42 | 0.43 | 58 | 1000.9 |
| 20260504214504 | 10 | 262 | 11.3 | 43.5 | 0.00 | 1.83 | 0.43 | 60 | 1000.7 |
| 20260504213006 | 11 | 267 | 16.1 | 45.1 | 0.00 | 1.83 | 0.43 | 60 | 1000.7 |
| 20260504211500 | 11 | 276 | 25.7 | 56.3 | 0.00 | 1.83 | 0.43 | 57 | 1000.6 |
| 20260504210059 | 11 | 261 | 16.1 | 51.5 | 0.00 | 1.83 | 0.43 | 65 | 1000.5 |
| 20260504204557 | 11 | 274 | 14.5 | 37.0 | 0.00 | 1.91 | 0.43 | 64 | 1000.2 |
| 20260504203056 | 11 | 259 | 16.1 | 49.9 | 0.00 | 1.91 | 0.43 | 66 | 1000.3 |
| 20260504201554 | 11 | 231 | 11.3 | 37.0 | 0.00 | 1.91 | 0.43 | 70 | 999.9 |
| 20260504200049 | 11 | 267 | 14.5 | 32.2 | 0.00 | 1.91 | 0.43 | 75 | 999.3 |
| 20260504194552 | 11 | 235 | 11.3 | 45.1 | 0.00 | 2.01 | 0.43 | 75 | 999.0 |
| 20260504193047 | 10 | 278 | 11.3 | 49.9 | 0.00 | 2.01 | 0.43 | 78 | 998.8 |
| 20260504191605 | 10 | 228 | 19.3 | 49.9 | 0.00 | 2.01 | 0.43 | 80 | 998.8 |
| 20260504190039 | 9 | 278 | 14.5 | 37.0 | 0.00 | 2.01 | 0.43 | 84 | 998.6 |
| 20260504184542 | 8 | 266 | 6.4 | 38.6 | 0.00 | 2.08 | 0.43 | 86 | 998.5 |
| 20260504183028 | 7 | 211 | 19.3 | 43.5 | 0.00 | 2.08 | 0.43 | 87 | 998.2 |
| 20260504181519 | 7 | 272 | 6.4 | 40.2 | 0.00 | 2.08 | 0.43 | 90 | 998.1 |
| 20260504180015 | 6 | 268 | 9.7 | 29.0 | 0.00 | 2.08 | 0.43 | 90 | 998.0 |
| 20260504173050 | 6 | 227 | 6.4 | 30.6 | 0.00 | 2.08 | 0.43 | 91 | 997.6 |
| 20260504170133 | 6 | 235 | 9.7 | 33.8 | 0.00 | 2.08 | 0.43 | 91 | 997.0 |
| 20260504081514 | 2 | 237 | 16.1 | 33.8 | 0.08 | 1.93 | 0.30 | 100 | 976.8 |